Regional Weather Roundup
Issued by NWS

Home | Current Version | Previous Version | Graphics & Text | Print | Product List | Glossary On
Versions: 1 2 3 4 5 6 7 8 9 10 11 12 13 14 15 16 17 18 19 20 21 22 23 24 25 26 27 28 29 30 31 32 33 34 35 36 37 38 39 40 41 42 43 44 45 46 47 48 49 50
000
ASUS43 KFSD 091110
RWRSD

WEATHER ROUNDUP FOR SOUTH DAKOTA
NATIONAL WEATHER SERVICE SIOUX FALLS SD
500 AM CST FRI DEC 09 2016

NOTE: "FAIR" INDICATES FEW OR NO CLOUDS BELOW 12,000 FEET WITH NO
SIGNIFICANT WEATHER AND/OR OBSTRUCTIONS TO VISIBILITY.


SDZ001>005-009-010-012>017-091200-
NORTHWEST AND NORTH CENTRAL SOUTH DAKOTA

CITY           SKY/WX    TMP DP  RH WIND       PRES   REMARKS
BUFFALO          N/A     -8 -12  83 E6        30.27F WCI -21
FAITH            N/A     -2  -7  79 NE6       30.41F WCI -14
MOBRIDGE       CLOUDY    -3  -9  75 N6        30.51F WCI -15
$$

SDZ012>016-024>037-041>051-057-063-072>074-091200-
SOUTHWEST AND SOUTH CENTRAL SOUTH DAKOTA

CITY           SKY/WX    TMP DP  RH WIND       PRES   REMARKS
RAPID CTY ARPT CLOUDY     0  -5  79 NE12      30.30F WCI -17
PIERRE         CLOUDY     2  -3  80 E6        30.52F WCI  -9
CUSTER         FLURRIES   3  -2  79 NE5       30.01F WCI  -6
ELLSWORTH AFB  CLOUDY    -1  -5  83 NE8       30.29S WCI -16
PHILIP         CLOUDY    -1  -5  82 E12       30.44F WCI -18
PINE RIDGE     CLOUDY     6   1  80 NE5       30.24S WCI  -3
SPEARFISH      CLOUDY    -6 -11  77 CALM      30.22F
WINNER         FAIR       2  -2  83 E6        30.49F WCI  -9
$$

SDZ004>011-016>023-039-040-091200-
NORTHEAST SOUTH DAKOTA

CITY           SKY/WX    TMP DP  RH WIND       PRES   REMARKS
ABERDEEN       CLOUDY    -8 -13  78 W7        30.59S WCI -23
WATERTOWN      CLEAR     -4  -8  83 W5        30.50F WCI -15
BROOKINGS      CLEAR     -3  -7  82 NW3       30.52F
SISSETON         N/A     -3  -8  79 NW6       30.55F WCI -15
$$

SDZ017-020-022-023-036>040-048>070-091200-
SOUTHEAST SOUTH DAKOTA

CITY           SKY/WX    TMP DP  RH WIND       PRES   REMARKS
SIOUX FALLS    PTCLDY     0  -3  87 W3        30.56F
HURON          CLOUDY    -4  -7  87 CALM      30.58F
CHAMBERLAIN    FLURRIES   4   0  83 E3        30.54F
MITCHELL       CLOUDY    -2  -6  83 CALM      30.59F
YANKTON        CLEAR      1  -6  71 NW3       30.57F
$$

ABBREVIATIONS USED IN REMARKS
   TC - TEMPERATURE IN CELSIUS
  WCI - WIND CHILL INDEX
   HX - HEAT INDEX
  VSB - VISIBILITY




USA.gov is the U.S. government's official web portal to all federal, state and local government web resources and services.